Weather History for Worland, WY

Change the Weather History Date:

Thursday, February 28, 2013

  Actual Average Record
Temperature  
Mean Temperature 23 °F 30 °F  
Max Temperature 39 °F 44 °F 67 °F (1972)
Min Temperature 6 °F 16 °F -20 °F (1996)
Degree Days  
Heating Degree Days 42 35  
Month to date heating degree days 1256 1154  
Since 1 July heating degree days 5582 6001  
Cooling Degree Days 0 0  
Month to date cooling degree days 0 0  
Year to date cooling degree days 0 0  
Moisture  
Dew Point 12 °F    
Average Humidity 70    
Maximum Humidity 92    
Minimum Humidity 47    
Precipitation  
Precipitation 0.00 in 0.01 in 0.17 in (1965)
Month to date precipitation 0.26 0.19  
Year to date precipitation 0.39 0.42  
Sea Level Pressure  
Sea Level Pressure 30.39 in    
Wind  
Wind Speed 3 mph (SSE)    
Max Wind Speed 10 mph    
Max Gust Speed 10 mph    
Visibility 10 miles    
Events      
T = Trace of Precipitation, MM = Missing Value Source: NWS Daily Summary

Daily Weather History Graph

Daily Weather History Graph

Search for Another Location

Airport:

Trip Planner

Search our weather history database for the weather conditions in past years. The results will help you decide how hot, cold, wet, or windy it might be!

Date:

Astronomy

Feb. 28, 2013 Rise Set
Actual Time 6:49 AM MST 5:59 PM MST
Civil Twilight 6:20 AM MST 6:28 PM MST
Nautical Twilight 5:47 AM MST 7:01 PM MST
Astronomical Twilight 5:14 AM MST 7:35 PM MST
Moon 9:39 PM MST (2/28) 7:53 AM MST (2/28)
Length of Visible Light 12h 07m
Length of Day
11h 09m
Waning Gibbous, 90% of the Moon is Illuminated
Feb 28
Waning Gibbous
Mar 4
Last Quarter
Mar 11
New
Mar 19
First Quarter
Mar 27
Full

Hourly Weather History & Observations

Time (MST) Temp. Windchill Dew Point Humidity Pressure Visibility Wind Dir Wind Speed Gust Speed Precip Events Conditions
12:53 AM 12.9 °F 5.2 °F 8.1 °F 81% 30.37 in 10.0 mi SE 4.6 mph - N/A   Clear
1:53 AM 14.0 °F - 7.0 °F 74% 30.36 in 10.0 mi Calm Calm - N/A   Clear
2:53 AM 10.9 °F 4.7 °F 8.1 °F 88% 30.35 in 10.0 mi West 3.5 mph - N/A   Clear
3:53 AM 10.0 °F 0.4 °F 5.0 °F 80% 30.37 in 10.0 mi SSW 5.8 mph - N/A   Clear
4:53 AM 9.0 °F -0.9 °F 5.0 °F 84% 30.38 in 10.0 mi South 5.8 mph - N/A   Clear
5:53 AM 8.1 °F - 3.9 °F 83% 30.41 in 10.0 mi Calm Calm - N/A   Clear
6:53 AM 12.9 °F 1.6 °F 7.0 °F 77% 30.40 in 10.0 mi South 8.1 mph - N/A   Clear
7:53 AM 15.1 °F 9.4 °F 9.0 °F 77% 30.40 in 10.0 mi ESE 3.5 mph - N/A   Scattered Clouds
8:53 AM 17.1 °F 10.0 °F 12.0 °F 81% 30.40 in 10.0 mi West 4.6 mph - N/A   Mostly Cloudy
9:53 AM 21.0 °F - 12.0 °F 68% 30.39 in 10.0 mi Calm Calm - N/A   Scattered Clouds
10:53 AM 25.0 °F - 14.0 °F 63% 30.39 in 10.0 mi Calm Calm - N/A   Scattered Clouds
11:53 AM 30.0 °F - 16.0 °F 56% 30.38 in 10.0 mi Calm Calm - N/A   Clear
12:53 PM 32.0 °F - 18.0 °F 56% 30.36 in 10.0 mi Calm Calm - N/A   Clear
1:53 PM 35.1 °F - 19.0 °F 52% 30.33 in 10.0 mi Calm Calm - N/A   Clear
2:53 PM 36.0 °F - 17.1 °F 46% 30.34 in 10.0 mi Calm Calm - N/A   Clear
3:53 PM 35.1 °F 32.2 °F 19.0 °F 52% 30.36 in 10.0 mi NE 3.5 mph - N/A   Clear
4:53 PM 34.0 °F - 17.1 °F 50% 30.36 in 10.0 mi Calm Calm - N/A   Clear
5:53 PM 27.0 °F 20.5 °F 17.1 °F 66% 30.40 in 10.0 mi SE 5.8 mph - N/A   Clear
6:53 PM 27.0 °F 20.5 °F 14.0 °F 58% 30.40 in 10.0 mi ESE 5.8 mph - N/A   Clear
7:53 PM 24.1 °F - 14.0 °F 65% 30.42 in 10.0 mi Calm Calm - N/A   Clear
8:53 PM 19.0 °F - 10.9 °F 71% 30.44 in 10.0 mi Calm Calm - N/A   Clear
9:53 PM 21.0 °F - 15.1 °F 78% 30.44 in 10.0 mi Calm Calm - N/A   Clear
10:53 PM 19.9 °F 12.1 °F 10.9 °F 68% 30.43 in 10.0 mi SE 5.8 mph - N/A   Clear
11:53 PM 16.0 °F 8.8 °F 9.0 °F 74% 30.43 in 10.0 mi SW 4.6 mph - N/A   Clear